Temperature
8 7 6 7 7 8 8 8 7 7 8 7 7 7 8 8 8 8 8 8 9 10 10 10 10 10 10 10 10 10 10 10 9 9 9 9 9 9 9 10 10 10 10 10
7 7 7 7 8 8 8 7 7 7 7 7 6 6 7 7 7 8 8 8 9 9 10 10 10 10 10 10 10 9 9 9 9 9 9 9 9 9 9 9 9 9 9 9
7 8 8 8 7 7 7 7 7 7 7 6 6 7 7 7 7 8 8 8 9 9 9 10 10 10 10 10 9 9 9 9 9 8 9 9 9 9 9 9 9 9 9 9
6 7 7 8 7 7 7 7 7 7 6 5 6 6 7 7 6 7 7 8 9 9 9 9 9 9 9 9 9 9 9 9 8 8 8 8 8 8 8 8 8 8 8 9
6 7 7 7 7 7 7 7 6 6 6 5 5 5 6 6 7 7 7 8 8 9 9 9 9 9 9 9 9 9 8 8 8 8 8 8 8 8 8 8 8 8 8 8
6 7 7 7 7 7 6 6 5 4 4 6 6 5 6 6 7 7 7 7 8 8 9 9 9 9 9 8 8 8 8 8 8 8 8 7 7 7 7 8 8 7 7 7
6 7 6 7 7 6 6 6 5 5 4 5 5 5 6 6 6 7 7 7 8 8 8 8 8 8 8 8 8 8 8 8 8 7 7 7 7 7 7 7 7 7 7 7
6 6 6 6 6 6 6 6 6 7 6 5 5 5 6 6 6 7 7 7 8 8 8 8 8 8 8 8 8 8 8 7 7 7 7 7 7 7 7 7 6 6 6 6
5 6 6 6 6 6 6 5 5 4 4 4 5 4 5 6 6 6 6 6 7 7 8 8 8 8 8 7 7 7 7 7 7 7 7 7 7 6 6 6 6 6 6 6
5 5 5 5 6 6 6 4 4 4 5 5 6 5 5 6 6 5 5 6 6 7 7 7 7 7 7 7 7 7 7 7 7 6 6 6 6 6 6 6 6 5 5 5
5 5 5 5 5 5 5 5 4 4 4 5 5 6 6 6 6 5 5 6 6 7 7 7 7 7 7 7 7 7 7 6 6 6 6 6 6 6 5 5 5 5 5 5
4 3 3 4 5 5 5 5 4 5 4 3 3 5 6 5 5 5 5 6 6 7 7 7 7 7 6 6 6 6 6 6 6 6 6 6 6 5 5 5 5 4 4 4
4 4 4 5 5 4 4 4 4 3 3 2 3 5 6 5 5 5 5 6 6 6 6 6 6 6 6 6 6 6 6 6 6 6 6 6 5 5 5 5 4 4 4 4
5 3 4 6 5 4 4 4 3 3 3 2 3 4 5 5 5 5 5 6 6 6 6 6 6 6 6 6 5 5 5 5 5 5 5 5 5 5 4 4 4 4 4 4
3 3 3 3 4 3 3 3 3 3 3 3 4 4 5 5 4 5 5 5 5 5 6 5 5 5 5 5 5 5 5 5 5 5 4 4 4 4 4 4 3 3 3 3
2 3 3 3 3 3 3 3 3 3 3 3 3 4 4 4 4 4 4 5 5 5 5 5 5 5 5 5 5 4 4 4 4 4 4 4 4 4 3 3 3 3 3 3
1 2 2 2 3 3 3 3 3 3 2 2 3 4 4 3 3 4 4 5 5 5 5 5 5 5 4 4 4 4 4 4 4 4 3 3 3 3 3 3 3 3 2 2
1 1 2 2 2 3 4 4 3 3 3 2 3 3 3 3 4 5 5 5 5 4 4 4 4 4 4 4 4 4 3 3 3 3 3 3 3 3 2 2 2 2 2 2
1 1 1 1 2 2 3 3 3 3 3 3 2 2 3 3 3 4 5 4 4 4 4 4 4 4 4 4 3 3 3 3 3 3 3 2 2 2 2 2 2 2 1 1
0 1 1 1 2 2 4 4 3 3 3 3 2 2 2 2 1 2 4 4 4 4 4 4 4 3 3 3 3 3 3 2 2 2 2 2 2 1 1 1 1 1 1 1
0 0 1 1 1 2 2 2 3 3 3 3 3 3 2 2 2 3 4 3 3 3 3 3 3 3 3 3 2 2 2 2 2 2 2 1 1 1 1 1 1 1 0 0
0 0 0 1 1 2 2 2 2 2 3 3 3 3 3 3 3 3 3 3 3 3 3 2 2 2 2 2 2 2 1 1 1 1 1 1 1 1 0 0 0 -0 -0 -0
-0 0 0 1 2 2 2 2 3 3 3 3 3 3 3 2 2 2 2 2 2 2 2 2 2 2 2 1 1 1 1 1 1 1 1 1 0 0 -0 -0 -0 -1 -1 -1
-1 -1 -1 -1 -0 1 1 2 2 2 2 2 2 2 2 2 2 2 2 2 2 2 2 1 1 1 1 1 1 1 0 0 0 0 0 0 -0 -0 -0 -1 -1 -1 -1 -1
-1 -2 -1 -1 -1 0 1 2 2 2 2 2 2 2 2 2 2 1 1 1 1 1 1 1 1 1 1 1 1 0 0 -0 -0 -0 -0 -0 -0 -1 -1 -1 -1 -1 -1 -1
-2 -2 -1 -0 0 -0 1 1 1 1 1 1 1 1 1 1 1 1 1 1 0 0 0 0 0 0 0 0 0 -0 -0 -0 -1 -1 -1 -1 -1 -1 -1 -1 -1 -1 -2 -2
Wind_Speed
2 3 2 5 5 4 3 3 5 6 4 3 6 10 13 9 5 6 5 4 5 6 4 2 2 2 3 3 3 3 4 3 3 3 3 2 2 2 1 1 3 3 3 4
3 2 5 3 2 2 3 3 5 5 3 2 6 10 10 6 5 5 5 5 6 5 2 1 1 1 2 4 4 4 3 3 3 2 2 2 2 2 2 2 3 3 3 3
5 4 1 2 2 2 2 4 5 5 6 3 5 8 5 4 3 4 3 3 4 4 3 2 1 1 2 3 4 4 4 3 3 3 3 3 3 2 2 2 2 2 2 2
3 3 1 2 2 3 4 4 3 2 3 4 3 5 7 5 6 4 4 3 3 3 1 2 2 2 3 3 3 3 4 3 3 4 4 4 3 2 1 2 2 1 2 2
3 1 2 3 4 4 4 1 1 1 1 3 2 2 8 4 4 5 5 4 3 2 1 2 2 2 2 2 2 3 3 3 3 3 4 4 3 2 2 2 2 2 2 2
3 2 2 4 1 2 2 3 3 3 2 3 4 4 6 4 4 5 4 3 3 2 1 1 0 1 1 1 2 3 4 3 3 3 3 4 4 3 3 3 2 1 1 1
4 3 1 1 2 2 3 4 4 5 3 5 2 3 8 6 5 4 4 3 2 1 1 1 0 1 1 2 2 3 4 3 3 4 3 4 4 4 4 3 2 1 1 0
1 5 3 2 3 3 3 4 4 3 4 5 2 5 7 5 4 3 2 2 1 1 1 1 2 2 2 2 3 3 4 3 3 3 3 3 3 3 3 3 3 2 2 1
5 5 1 1 1 5 4 3 4 4 1 3 5 6 8 3 3 2 2 1 2 1 1 2 1 2 3 3 3 4 4 3 4 4 3 3 3 3 3 2 2 2 1 1
5 3 2 1 2 1 3 6 4 3 2 4 6 5 5 5 5 3 3 3 3 2 2 2 1 1 2 3 3 2 3 3 3 4 3 3 3 3 3 3 3 2 2 2
3 3 2 1 4 5 4 3 3 3 3 4 4 7 5 5 4 3 4 4 3 3 2 2 2 1 0 0 1 1 1 1 2 3 3 3 3 3 3 3 3 3 2 3
3 3 3 6 3 3 4 6 6 4 4 4 3 7 4 4 3 3 4 4 3 2 2 2 2 1 1 0 1 1 1 2 2 2 3 3 3 3 3 3 3 3 3 3
4 3 1 3 2 0 2 4 4 3 3 5 5 8 2 1 2 2 3 4 3 2 2 2 1 1 1 1 1 1 1 2 1 1 2 2 3 3 3 4 3 3 3 3
3 4 6 8 5 3 4 5 5 5 4 6 9 10 8 6 5 5 4 4 4 2 2 2 2 2 2 1 1 1 2 1 1 1 2 2 3 3 3 3 3 3 3 3
3 4 5 7 6 4 7 9 8 10 9 9 10 10 11 8 6 5 4 4 3 3 3 4 3 3 3 2 2 2 2 2 2 2 2 3 2 2 2 2 3 3 3 3
1 2 2 5 4 5 9 10 11 11 9 10 11 12 8 6 4 4 5 4 4 5 5 4 4 4 4 3 3 3 2 2 2 2 3 2 2 2 2 2 2 2 2 3
2 3 2 4 4 4 8 9 10 7 7 8 11 10 3 4 6 6 6 5 6 6 5 5 5 5 5 5 4 4 3 2 2 2 2 2 2 2 2 2 2 2 3 2
5 4 3 2 1 7 7 3 6 7 7 8 7 6 5 6 7 6 5 5 6 5 5 4 4 4 4 4 4 3 2 2 3 3 3 3 3 3 2 2 2 3 2 3
7 6 4 3 5 8 7 3 5 5 6 6 7 6 4 2 3 4 4 3 4 5 4 4 4 4 3 3 3 2 2 2 3 3 4 3 3 3 3 3 4 3 2 3
3 4 4 4 5 7 6 2 2 2 5 3 4 5 3 0 2 5 3 3 4 4 3 3 2 2 2 2 1 1 2 2 4 4 4 4 3 4 4 5 4 3 3 4
3 4 6 7 7 8 5 1 3 3 5 2 2 3 3 3 5 5 4 4 3 3 3 2 2 2 2 2 1 1 2 4 4 3 3 3 3 4 4 4 3 3 3 3
6 5 6 6 7 8 1 2 3 4 2 1 1 1 2 4 4 4 4 4 4 4 3 2 2 3 3 2 1 2 4 4 3 3 3 3 3 3 3 3 3 3 3 3
5 5 4 6 6 3 1 3 3 2 2 2 2 3 3 3 4 4 4 3 3 3 3 2 1 2 3 2 2 3 5 3 3 3 3 3 3 3 3 3 3 3 3 3
4 2 3 4 6 5 4 4 4 3 3 4 3 4 3 4 5 4 4 4 3 3 3 2 2 3 4 3 3 4 4 3 3 4 4 3 3 3 3 3 3 3 4 4
5 3 4 6 6 5 5 4 4 4 4 4 4 3 4 4 4 4 4 4 4 4 3 2 2 3 5 4 4 4 4 3 3 3 3 3 3 3 3 3 3 4 5 5
5 6 6 7 6 4 6 5 4 4 5 5 4 4 3 3 3 3 3 4 4 4 3 3 3 4 5 4 5 5 3 3 3 3 3 3 3 3 2 3 4 5 6 7
Wind_Direction
58 82 211 224 210 210 190 214 266 271 289 300 268 277 285 294 288 278 270 270 270 263 260 233 220 185 148 146 151 151 136 129 129 127 134 135 138 123 93 92 120 126 131 132
57 251 241 219 193 175 188 241 269 290 313 292 293 287 282 283 271 263 258 259 260 268 277 269 229 138 153 166 162 152 150 138 140 137 137 136 135 127 116 95 74 102 126 132
191 238 221 163 167 174 236 221 243 274 324 344 327 310 303 299 302 302 285 265 265 255 243 241 220 193 161 174 175 168 161 142 140 129 114 96 83 72 73 74 64 54 100 114
231 260 169 169 215 182 254 242 228 267 337 312 14 307 296 302 314 312 308 304 293 284 250 226 208 207 199 194 176 157 150 140 135 131 137 139 137 146 178 130 113 67 80 101
256 230 190 214 230 182 217 306 267 289 208 301 309 232 288 316 311 303 295 293 297 294 282 242 210 207 200 164 147 145 136 136 135 140 149 141 130 129 120 104 100 76 59 82
252 260 207 212 231 173 153 54 37 40 67 289 240 196 282 270 260 284 283 284 289 289 310 306 280 127 108 105 126 145 145 150 148 148 147 146 151 148 136 124 120 86 58 69
313 293 265 142 90 48 89 84 19 354 350 259 239 212 252 263 257 252 264 273 281 292 291 284 273 178 177 171 170 163 156 165 161 158 163 167 171 167 165 159 153 174 193 213
240 280 242 198 184 178 173 146 160 221 250 286 297 243 257 277 286 279 276 277 281 297 278 247 225 212 212 201 181 173 171 178 172 170 179 174 175 178 175 167 165 183 198 216
191 251 317 213 204 149 143 177 164 141 200 283 274 283 301 301 323 335 335 333 297 295 286 266 238 207 203 203 201 191 186 186 185 184 180 179 182 181 179 169 165 184 195 198
169 237 282 312 80 45 152 145 116 142 194 265 290 276 260 282 288 307 312 291 290 298 299 287 258 222 214 206 202 192 195 197 194 184 185 192 190 190 181 170 181 191 202 195
162 183 299 333 194 186 137 147 146 151 179 187 268 274 231 232 251 252 268 277 275 282 286 286 282 265 264 191 184 187 196 197 200 191 186 183 190 189 179 187 198 198 205 198
168 150 241 249 249 189 182 180 157 176 227 203 219 269 276 234 258 254 272 288 285 274 286 301 305 337 17 101 200 203 208 209 219 200 183 187 185 181 187 200 206 199 203 208
153 146 311 331 343 42 217 198 182 157 152 188 210 262 303 327 324 307 291 294 295 278 292 321 332 310 279 238 223 219 227 232 231 189 179 188 192 192 202 210 210 203 204 211
144 175 198 220 238 205 242 230 196 172 199 225 231 256 289 299 306 306 298 288 281 267 269 285 288 285 279 268 252 246 251 239 215 185 186 207 213 208 210 211 211 211 209 211
121 220 232 252 262 242 244 240 217 216 217 224 245 247 263 270 276 275 272 277 280 281 277 266 263 266 270 266 262 250 250 245 222 201 206 223 223 212 207 212 218 217 216 225
130 217 253 272 256 250 262 251 227 230 230 238 257 265 260 265 275 279 272 262 265 274 275 269 261 260 256 250 248 247 249 241 216 217 228 223 202 198 211 223 222 226 235 235
190 173 204 267 295 307 266 233 210 213 213 205 233 250 267 272 267 263 260 257 255 263 268 267 267 257 251 246 238 236 239 236 221 229 233 221 207 212 225 227 221 229 240 243
188 179 196 253 347 248 251 215 193 208 235 221 234 256 247 252 268 270 255 245 258 268 270 270 266 264 259 244 238 235 230 228 230 232 233 228 219 228 233 232 241 243 235 234
196 183 191 198 242 271 282 239 182 201 261 228 232 255 261 288 328 298 263 244 253 261 266 265 260 259 259 256 238 212 227 234 237 237 239 235 221 222 231 238 246 249 245 249
163 175 186 198 227 245 252 223 180 140 274 245 213 237 250 89 302 281 295 298 290 292 293 292 299 303 293 284 237 207 239 242 247 247 244 239 225 224 234 241 249 255 246 251
154 189 207 217 236 260 263 250 121 178 257 286 207 217 210 214 231 263 299 309 304 303 305 317 336 325 286 279 228 240 253 256 261 260 256 250 235 232 236 242 248 246 250 255
189 191 202 196 222 252 265 121 179 236 291 285 263 254 242 255 278 294 299 298 311 320 325 333 337 321 309 289 239 255 265 269 273 265 261 258 251 248 245 237 250 243 236 247
211 204 205 208 229 282 245 228 265 255 255 269 268 279 271 282 285 292 295 303 309 309 309 309 301 306 311 302 257 257 272 278 280 272 268 266 263 257 240 230 239 248 233 238
255 221 210 253 266 277 279 285 295 282 263 274 276 277 262 264 275 285 291 298 303 305 302 300 304 302 302 300 285 266 275 278 272 271 271 266 259 264 258 244 232 233 234 237
236 201 229 255 274 297 285 281 289 294 292 293 292 278 255 253 269 267 278 287 289 295 295 290 281 282 287 294 292 286 277 265 263 264 263 261 256 255 261 261 244 239 238 235
219 207 212 244 243 237 266 270 281 279 279 279 280 288 285 259 261 271 276 280 285 290 294 292 285 281 284 286 288 287 274 252 249 267 266 258 256 259 257 270 291 273 261 266
Height
1501 1505 1507 1505 1505 1505 1506 1508 1508 1504 1501 1501 1499 1495 1488 1484 1484 1482 1481 1480 1480 1481 1482 1482 1482 1483 1483 1484 1485 1487 1488 1490 1491 1492 1494 1496 1497 1499 1500 1501 1502 1504 1506 1507
1505 1505 1502 1502 1503 1504 1505 1507 1507 1503 1500 1500 1498 1494 1486 1482 1481 1480 1479 1478 1478 1478 1479 1480 1480 1480 1481 1482 1483 1485 1486 1488 1489 1491 1493 1494 1496 1497 1498 1499 1499 1502 1503 1504
1502 1501 1499 1501 1502 1504 1505 1506 1505 1504 1502 1500 1500 1493 1486 1481 1479 1478 1477 1477 1476 1476 1476 1477 1478 1479 1479 1480 1482 1483 1485 1487 1489 1490 1492 1493 1494 1495 1496 1496 1498 1499 1501 1502
1502 1499 1499 1500 1502 1502 1504 1501 1502 1503 1505 1508 1505 1505 1488 1483 1481 1477 1476 1475 1474 1475 1475 1476 1477 1478 1478 1479 1481 1483 1484 1486 1488 1489 1490 1491 1491 1492 1494 1495 1496 1498 1499 1500
1500 1498 1499 1499 1500 1500 1501 1501 1502 1503 1505 1509 1507 1507 1493 1485 1481 1477 1475 1474 1474 1474 1474 1475 1475 1476 1477 1479 1480 1481 1483 1484 1486 1488 1489 1489 1490 1491 1492 1493 1495 1496 1497 1497
1499 1497 1497 1497 1497 1499 1500 1503 1505 1508 1510 1510 1505 1508 1495 1486 1480 1476 1474 1473 1473 1473 1473 1474 1475 1475 1476 1477 1478 1480 1481 1482 1484 1485 1487 1488 1489 1489 1490 1491 1492 1493 1494 1495
1499 1497 1496 1496 1498 1499 1501 1507 1515 1514 1519 1509 1503 1504 1493 1479 1476 1475 1473 1472 1472 1472 1473 1473 1473 1474 1475 1476 1477 1477 1479 1480 1482 1483 1485 1486 1487 1488 1488 1489 1490 1491 1492 1492
1503 1501 1495 1495 1496 1499 1501 1503 1512 1512 1513 1510 1504 1501 1486 1477 1475 1473 1472 1472 1472 1472 1472 1472 1472 1473 1474 1475 1475 1476 1477 1479 1480 1482 1483 1484 1485 1486 1486 1487 1488 1489 1489 1489
1501 1499 1494 1493 1494 1496 1500 1505 1505 1513 1517 1516 1504 1496 1483 1474 1473 1472 1472 1471 1471 1471 1471 1471 1471 1472 1472 1473 1474 1475 1476 1478 1479 1480 1481 1482 1483 1483 1484 1484 1485 1486 1487 1487
1496 1499 1495 1494 1494 1495 1497 1502 1509 1510 1510 1508 1499 1496 1487 1475 1473 1472 1471 1470 1470 1470 1470 1470 1470 1471 1471 1472 1473 1474 1475 1476 1477 1478 1479 1479 1480 1481 1481 1482 1483 1484 1484 1484
1494 1499 1499 1496 1495 1496 1499 1501 1503 1508 1509 1509 1504 1491 1476 1474 1472 1472 1471 1470 1470 1470 1469 1469 1469 1470 1470 1471 1471 1472 1473 1474 1475 1475 1476 1477 1478 1478 1479 1480 1480 1481 1481 1481
1494 1499 1501 1496 1493 1492 1493 1495 1500 1504 1506 1510 1507 1492 1472 1472 1470 1470 1470 1469 1469 1469 1469 1468 1468 1469 1469 1469 1470 1470 1471 1471 1472 1473 1473 1474 1475 1475 1476 1477 1477 1478 1478 1478
1492 1497 1498 1493 1496 1495 1494 1494 1496 1498 1503 1509 1505 1488 1471 1470 1469 1469 1469 1468 1468 1468 1468 1467 1467 1467 1468 1468 1468 1468 1469 1469 1470 1470 1471 1471 1472 1473 1473 1474 1474 1474 1474 1474
1488 1493 1494 1491 1487 1490 1492 1491 1493 1496 1500 1500 1494 1481 1472 1470 1470 1469 1468 1467 1467 1467 1466 1466 1466 1466 1466 1466 1466 1466 1467 1467 1467 1468 1468 1468 1469 1469 1470 1470 1471 1471 1470 1470
1487 1490 1490 1488 1486 1488 1486 1485 1488 1490 1488 1489 1480 1479 1470 1469 1468 1467 1467 1466 1465 1465 1464 1464 1464 1464 1464 1464 1464 1464 1464 1464 1465 1465 1465 1465 1466 1466 1466 1467 1467 1467 1466 1467
1488 1489 1488 1486 1483 1484 1482 1479 1481 1481 1481 1481 1477 1473 1466 1466 1466 1464 1464 1463 1463 1462 1462 1462 1461 1461 1461 1461 1461 1461 1461 1461 1462 1461 1461 1462 1462 1462 1462 1463 1462 1462 1462 1462
1488 1489 1489 1488 1485 1481 1478 1472 1473 1474 1473 1473 1471 1466 1464 1464 1463 1462 1461 1460 1460 1459 1459 1458 1458 1458 1458 1458 1458 1458 1458 1458 1458 1458 1458 1458 1458 1459 1458 1458 1458 1458 1458 1458
1486 1487 1489 1488 1487 1483 1467 1463 1464 1466 1465 1465 1463 1462 1462 1461 1460 1459 1458 1458 1457 1456 1456 1455 1455 1455 1455 1455 1455 1455 1455 1455 1455 1455 1455 1455 1455 1455 1455 1454 1454 1454 1453 1453
1480 1483 1487 1487 1486 1476 1465 1461 1462 1464 1462 1459 1460 1459 1459 1459 1458 1457 1456 1456 1455 1454 1453 1453 1452 1451 1451 1451 1451 1451 1451 1451 1451 1451 1451 1451 1451 1450 1450 1450 1450 1449 1449 1449
1478 1480 1484 1485 1482 1475 1461 1458 1457 1460 1461 1456 1456 1456 1457 1458 1461 1457 1454 1453 1452 1451 1451 1450 1449 1448 1448 1447 1447 1447 1447 1447 1447 1447 1447 1447 1446 1446 1446 1446 1445 1445 1445 1444
1480 1480 1481 1480 1478 1468 1459 1457 1457 1464 1459 1455 1453 1453 1455 1456 1456 1454 1452 1451 1450 1449 1448 1447 1446 1445 1445 1444 1444 1443 1443 1443 1443 1443 1443 1442 1442 1442 1441 1441 1441 1441 1440 1440
1473 1475 1474 1475 1476 1468 1457 1457 1459 1457 1454 1453 1453 1453 1453 1453 1452 1451 1450 1449 1448 1447 1446 1445 1444 1443 1442 1442 1441 1440 1440 1440 1439 1439 1438 1438 1437 1437 1437 1437 1436 1436 1436 1435
1469 1467 1466 1466 1463 1457 1455 1455 1455 1454 1453 1452 1452 1452 1452 1451 1450 1449 1448 1447 1446 1445 1444 1443 1442 1441 1440 1439 1439 1437 1437 1436 1435 1435 1434 1434 1433 1433 1433 1432 1432 1432 1431 1431
1465 1463 1464 1463 1457 1454 1453 1453 1453 1452 1451 1451 1450 1450 1449 1448 1448 1447 1446 1444 1443 1442 1442 1441 1439 1438 1437 1436 1436 1435 1433 1432 1431 1430 1430 1429 1429 1429 1429 1428 1428 1427 1427 1427
1460 1461 1461 1459 1454 1452 1450 1451 1451 1450 1450 1449 1448 1447 1447 1446 1445 1444 1443 1442 1441 1440 1439 1438 1437 1436 1434 1433 1432 1431 1430 1429 1428 1427 1426 1426 1425 1425 1425 1424 1424 1423 1423 1423
1455 1456 1457 1453 1450 1450 1448 1448 1448 1448 1447 1446 1445 1444 1444 1443 1442 1441 1440 1439 1438 1437 1436 1435 1434 1433 1431 1430 1428 1427 1426 1425 1424 1423 1422 1422 1422 1421 1421 1420 1420 1419 1419 1419